Location: *
(51.2167°N, 10.0667°E)
Time: 17:10:43
(UTC+00:00)

Lacrosse 5 rocket - Pass Details

Date: 12 December 2019
Orbit: 465 x 633 km, 57.0° (Epoch: 20 January)

Event Time Altitude Azimuth Distance (km) Brightness Sun altitude
Rises 18:27:00 0° 279° (W) 2,754 6.1 -29.2°
Reaches altitude 10° 18:29:27 10° 288° (WNW) 1,827 4.8 -29.6°
Enters shadow 18:31:25 23° 307° (NW) 1,170 3.4 -29.9°
